Regional Weather Roundup
Issued by NWS Sterling, VA

Home | Current Version | Previous Version | Text Only | Print | Product List | Glossary Off
Versions: 1 2 3 4 5 6 7 8 9 10 11 12 13 14 15 16 17 18 19 20 21 22 23 24 25 26 27 28 29 30 31 32 33 34 35 36 37 38 39 40 41 42 43 44 45 46 47 48 49 50

973
ASUS41 KLWX 241110
RWRLWX

REGIONAL WEATHER ROUNDUP
NATIONAL WEATHER SERVICE BALTIMORE MD/WASHINGTON DC
600 AM EST TUE JAN 24 2017

Note: "FAIR" indicates few or no clouds below 12,000 feet
with no significant weather and/or obstructions to visibility.
 TC=TEMPERATURE CELSIUS

 * =Non NWS site. Station does not report precipitation (e.g. rain,
    snow, etc.), thunder, or fog.

DCZ001-MDZ009-015-VAZ040>042-051-053>054-241200-
WASHINGTON METRO

CITY           SKY/WX    TMP DP  RH WIND       PRES   REMARKS
WASHINGTON NAT DRIZZLE   39  37  92 NW15G24   29.49R
DULLES         DRIZZLE   37  33  85 NW16      29.50S WCI  28
ANDREWS AFB    CLOUDY    37  36  93 NW15      29.46R WCI  28
FT BELVOIR     CLOUDY    38  35  86 NW16      29.49R
QUANTICO       CLOUDY    39  37  92 N16G28    29.51R
COLLEGE PARK*  CLOUDY    36  34  93 NW9G16    29.48R WCI  29
LEESBURG*      CLOUDY    37  37 100 NW14G23   29.52R WCI  29
GAITHERSBURG*  CLOUDY    36  32  87 NW9       29.53R WCI  29

$$

MDZ006>007-011-014-241200-
BALTIMORE METRO

CITY           SKY/WX    TMP DP  RH WIND       PRES   REMARKS
BWI AIRPORT    DRIZZLE   37  36  96 NW12      29.46R
MD SCIENCE CTR   N/A     40  33  76 MISG      29.45R
MARTIN STATE   CLOUDY    39  37  93 W14       29.46
ANNAPOLIS      CLOUDY    41  37  86 NW9       29.45R
FORT MEADE*    CLOUDY    36  34  93 NW7       29.50R

$$

MDZ012-015-019>023-241200-
MARYLAND EASTERN SHORE

CITY           SKY/WX    TMP DP  RH WIND       PRES   REMARKS
OCEAN CITY     CLOUDY    39  38  96 NW20G25   29.33R
SALISBURY      CLOUDY    39  38  96 NW16      29.36R
BAY BRIDGE AP* CLOUDY    39  36  87 NW16G22   29.44S
CAMBRIDGE*     CLOUDY    37  36  93 NW12G20   29.41R
EASTON*        LGT RAIN  39  37  90 N13       29.44F

$$

MDZ017>025-241200-
SOUTHERN MARYLAND

CITY           SKY/WX    TMP DP  RH WIND       PRES   REMARKS
PATUXENT RIVER LGT RAIN  39  38  96 NW21      29.43R FOG     WCI  29
ST INIGOES     CLOUDY    39  37  92 NW12G20   29.43R
LEONARDTOWN*   CLOUDY    37  36  93 NW7       29.46R

$$

MDZ003>005-241200-
NORTH CENTRAL MARYLAND

CITY           SKY/WX    TMP DP  RH WIND       PRES   REMARKS
FREDERICK*     CLOUDY    37  37 100 NW6       29.54R
HAGERSTOWN APT CLOUDY    36  33  89 NW12      29.51S WCI  28
WESTMINSTER*     N/A     34  34 100 N12G17    29.47R FOG     WCI  25

$$

MDZ501>502-241200-
WESTERN MARYLAND

CITY           SKY/WX    TMP DP  RH WIND       PRES   REMARKS
OAKLAND*       FOG       28  28 100 NW7       29.53S VSB 3/4
CUMBERLAND*    MOCLDY    37  34  87 N5        29.61R

$$

VAZ025>031-241200-
SHENANDOAH VALLEY

CITY           SKY/WX    TMP DP  RH WIND       PRES   REMARKS
WINCHESTER*    MOCLDY    34  32  93 NW12      29.53S WCI  25
FRONT ROYAL*   CLOUDY    36  34  93 CALM      29.53S
LURAY*         CLOUDY    36  36 100 CALM      29.53F
NEW MARKET*    CLOUDY    34  33  96 CALM      29.53F
STAUNTON*      CLOUDY    34  31  88 N7        29.54S
WAYNESBORO*    CLOUDY    33  31  92 NW6       29.52S

$$

WVZ021-048>050-054>055-241200-
EASTERN WEST VIRGINIA PANHANDLE

CITY           SKY/WX    TMP DP  RH WIND       PRES   REMARKS
MARTINSBURG    CLOUDY    37  33  85 NW12      29.53S
PETERSBURG*    MIX PCPN  36  35  95 CALM      29.57F

$$

VAZ036>039-050-241200-
CENTRAL FOOTHILLS

CITY           SKY/WX    TMP DP  RH WIND       PRES   REMARKS
CHARLOTTESVILL CLOUDY    39  31  72 W3        29.50S
CULPEPER*      PTCLDY    38  34  87 N9        29.52S
ORANGE*          N/A     36  34  93 CALM      29.52S
GORDONSVILLE*  MOSUNNY   37  32  82 CALM      29.50S
WARRENTON*     PTCLDY    38  32  81 NW10      29.50S

$$

VAZ055>057-241200-
NORTH AND CENTRAL PIEDMONT

CITY           SKY/WX    TMP DP  RH WIND       PRES   REMARKS
FREDERICKSBRG* MOCLDY    38  38 100 NW9G18    29.50R
STAFFORD*      CLOUDY    36  36 100 NW14      29.54R WCI  27

$$

NCZ024-NYZ072-PAZ021-071-VAZ022-071-241200-
OTHER REGIONAL OBSERVATIONS

CITY           SKY/WX    TMP DP  RH WIND       PRES   REMARKS
NEW YORK CITY  MIX PCPN  35  35 100 N8G22     29.39S FOG     WCI  29
PHILADELPHIA   CLOUDY    37  34  89 N15       29.39R WCI  28
PITTSBURGH     DRIZZLE   36  36 100 W7        29.62R FOG
ROANOKE        MOCLDY    44  34  67 VRB5      29.56R
RICHMOND       CLOUDY    38  35  89 NW13      29.49R
RALEIGH        MOCLDY    43  37  79 W3        29.55R

$$

ANZ530>537-241200-
MARINE OBSERVATIONS

STATION/POSITION TIME  TEMP    WIND        PRES
                       AIR SEA DIR/SP/G
                 (UTC) (F)     (DEG/KT/KT) (MB)
THOMAS PT LIGHT  1100   38 40  320/ 17/ 19   N/A
BALT KEY BRIDGE  1048   39     310/ 14/ 17  997.3R
COVE POINT       1048   38     340/ 22/ 29  996.9R
LEWISETTA        1048   39 44  330/ 16/ 21  996.7R
SOLOMONS ISLAND  1042   39 42  320/ 13/ 16   N/A
PINEY POINT      1048          340/ 21/ 23   N/A

$$





USA.gov is the U.S. government's official web portal to all federal, state and local government web resources and services.